HST 1 20580U 90037B 24314.70422369 .00022350 00000-0 96974-3 0 9991 2 20580 28.4677 88.1208 0002313 168.2375 191.8273 15.20978544699188 ISS (ZARYA) 1 25544U 98067A 24315.17990951 .00026938 00000-0 45635-3 0 9990 2 25544 51.6390 312.1292 0008497 158.8307 201.3036 15.51300168481194 CXO 1 25867U 99040B 24315.94490051 .00000867 00000-0 00000-0 0 9998 2 25867 44.4345 142.2854 8731014 303.7599 359.9118 0.37806614 15120